User: anonymous   Login
Location: Ward Pound Ridge Reservation
(41.2500°N, 73.6000°W)
Time: 14:25:16
(UTC-04:00)
Language:

Tiangong 2 - Orbit

View from above orbital plane
View from above orbital plane
View from above satellite
View from above satellite

Ground track
Ground track

The orbit data is extracted from the following two-line orbital elements,

1 41765U 16057A   18172.41197980  .00043187  89735-5  12616-3 0  9999
2 41765  42.7859 315.3412 0004193 315.0648  91.6803 15.92966836100679
Epoch (UTC): 21 June 2018 09:53:15
Eccentricity: 0.0004193
inclination: 42.7859°
perigee height: 291 km
apogee height: 297 km
right ascension of ascending node: 315.3412°
argument of perigee: 315.0648°
revolutions per day: 15.92966836
mean anomaly at epoch: 91.6803°
orbit number at epoch: 10067

The dashed part of the orbit path shows where the satellite is in the earth's shadow,  

DLR